Location: Codford Saint Peter
(51.1597°N, 2.0531°W)
Time: 02:06:13
(UTC+00:00)

ATLAS 2AS CENTAUR R/B - Pass Details

Date: 18 September 2020
Orbit: 939 x 1273 km, 63.7° (Epoch: 27 October)

Event Time Altitude Azimuth Distance (km) Brightness Sun altitude
Rises 21:01:40 0° 199° (SSW) 4,193 5.6 -25.0°
Reaches altitude 10° 21:04:31 10° 194° (SSW) 3,246 5.0 -25.4°
Enters shadow 21:04:49 11° 194° (SSW) 3,151 4.9 -25.4°
Exits shadow 21:11:57 52° 126° (SE) 1,543 3.1 -26.3°
Maximum altitude 21:12:07 52° 121° (ESE) 1,542 3.1 -26.3°
Drops below altitude 10° 21:19:40 10° 49° (NE) 3,229 5.1 -27.2°
Sets 21:22:29 0° 45° (NE) 4,170 5.8 -27.5°
